User: anonymous   Login
Location: Cicognara
(44.9500°N, 10.4667°E)
Time: 23:45:04
(UTC+00:00)
Language:

Meteor 1-24 Rocket - Orbit

View from above orbital plane
View from above orbital plane
View from above satellite
View from above satellite

Ground track
Ground track

The orbit data is extracted from the following two-line orbital elements,

1 08800U 76032B   21263.17992781 -.00000009  00000-0 -12490-4 0  9993
2 08800  81.2512 143.5233 0095526  99.3622 261.8365 14.10169501337277
Epoch (UTC): 20 September 2021 04:19:05
Eccentricity: 0.0095526
inclination: 81.2512°
perigee height: 789 km
apogee height: 928 km
right ascension of ascending node: 143.5233°
argument of perigee: 99.3622°
revolutions per day: 14.10169501
mean anomaly at epoch: 261.8365°
orbit number at epoch: 33727

The dashed part of the orbit path shows where the satellite is in the earth's shadow,  

DLR